TimeEST,TemperatureF,Dew PointF,Humidity,Sea Level PressureIn,VisibilityMPH,Wind Direction,Wind SpeedMPH,Gust SpeedMPH,PrecipitationIn,Events,Conditions,WindDirDegrees,DateUTC
12:15 AM,28.4,26.6,93,30.05,4.0,SSW,5.8,-,N/A,,Clear,200,2014-02-20 05:15:00
12:35 AM,28.4,26.6,93,30.05,3.0,South,5.8,-,N/A,,Clear,190,2014-02-20 05:35:00
12:55 AM,28.4,28.4,100,30.05,4.0,SSW,5.8,-,N/A,,Clear,200,2014-02-20 05:55:00
1:15 AM,28.4,26.6,93,30.05,1.8,South,5.8,-,N/A,,Clear,190,2014-02-20 06:15:00
1:35 AM,26.6,26.6,100,30.04,3.0,South,4.6,-,N/A,,Clear,180,2014-02-20 06:35:00
1:55 AM,26.6,26.6,100,30.05,2.5,South,6.9,-,N/A,,Clear,180,2014-02-20 06:55:00
2:15 AM,26.6,24.8,93,30.05,2.0,South,6.9,-,N/A,,Clear,180,2014-02-20 07:15:00
2:35 AM,26.6,24.8,93,30.05,2.0,South,5.8,-,N/A,,Clear,170,2014-02-20 07:35:00
2:55 AM,26.6,24.8,93,30.07,1.5,South,5.8,-,N/A,,Clear,170,2014-02-20 07:55:00
3:15 AM,26.6,24.8,93,30.06,0.5,SSE,3.5,-,N/A,,Overcast,150,2014-02-20 08:15:00
3:35 AM,26.6,24.8,93,30.07,1.0,South,5.8,-,N/A,,Overcast,170,2014-02-20 08:35:00
3:55 AM,26.6,24.8,93,30.07,1.5,SSE,6.9,-,N/A,,Mostly Cloudy,160,2014-02-20 08:55:00
4:15 AM,26.6,24.8,93,30.07,0.8,SSE,5.8,-,N/A,,Overcast,160,2014-02-20 09:15:00
4:35 AM,26.6,24.8,93,30.08,1.0,SSE,6.9,-,N/A,,Overcast,160,2014-02-20 09:35:00
4:55 AM,26.6,24.8,93,30.07,1.8,SSE,5.8,-,N/A,,Mostly Cloudy,160,2014-02-20 09:55:00
5:15 AM,26.6,24.8,93,30.07,1.0,South,6.9,-,N/A,,Overcast,170,2014-02-20 10:15:00
5:35 AM,26.6,24.8,93,30.08,1.5,South,8.1,-,N/A,,Mostly Cloudy,170,2014-02-20 10:35:00
5:55 AM,26.6,24.8,93,30.08,1.5,South,6.9,-,N/A,,Mostly Cloudy,170,2014-02-20 10:55:00
6:15 AM,26.6,24.8,93,30.09,1.8,South,8.1,-,N/A,,Overcast,170,2014-02-20 11:15:00
6:35 AM,26.6,24.8,93,30.08,1.8,South,9.2,-,N/A,,Overcast,170,2014-02-20 11:35:00
6:55 AM,26.6,24.8,93,30.09,1.0,South,6.9,-,N/A,,Overcast,180,2014-02-20 11:55:00
7:15 AM,26.6,24.8,93,30.09,0.2,South,10.4,-,N/A,,Overcast,170,2014-02-20 12:15:00
7:35 AM,26.6,24.8,93,30.09,0.2,South,6.9,-,N/A,,Overcast,170,2014-02-20 12:35:00
7:55 AM,26.6,24.8,93,30.08,0.2,SSE,8.1,-,N/A,,Overcast,160,2014-02-20 12:55:00
8:15 AM,26.6,24.8,93,30.07,0.2,SSE,6.9,-,N/A,,Overcast,150,2014-02-20 13:15:00
8:35 AM,26.6,26.6,100,30.07,0.2,SSE,8.1,-,N/A,,Overcast,150,2014-02-20 13:35:00
8:55 AM,28.4,26.6,93,30.07,0.2,SE,6.9,-,N/A,,Overcast,130,2014-02-20 13:55:00
9:15 AM,28.4,28.4,100,30.06,2.5,ESE,4.6,-,N/A,,Scattered Clouds,110,2014-02-20 14:15:00
9:35 AM,28.4,26.6,93,30.05,5.0,East,6.9,-,N/A,,Partly Cloudy,90,2014-02-20 14:35:00
9:55 AM,28.4,26.6,93,30.03,9.0,SE,5.8,-,N/A,,Clear,130,2014-02-20 14:55:00
10:15 AM,28.4,26.6,93,30.04,10.0,SSE,4.6,-,N/A,,Clear,150,2014-02-20 15:15:00
10:35 AM,30.2,28.4,93,30.03,9.0,SE,3.5,-,N/A,,Clear,130,2014-02-20 15:35:00
10:55 AM,32.0,28.4,87,30.02,9.0,SE,6.9,-,N/A,,Clear,130,2014-02-20 15:55:00
11:15 AM,33.8,26.6,75,29.98,10.0,ESE,6.9,-,N/A,,Clear,110,2014-02-20 16:15:00
11:35 AM,33.8,26.6,75,29.96,10.0,East,9.2,-,N/A,,Clear,90,2014-02-20 16:35:00
11:55 AM,35.6,24.8,65,29.94,10.0,East,12.7,-,N/A,,Clear,100,2014-02-20 16:55:00
12:15 PM,39.2,26.6,61,29.95,10.0,SE,4.6,-,N/A,,Clear,130,2014-02-20 17:15:00
12:35 PM,39.2,23.0,52,29.93,10.0,ESE,8.1,-,N/A,,Mostly Cloudy,110,2014-02-20 17:35:00
12:55 PM,39.2,24.8,56,29.92,10.0,SE,8.1,-,N/A,,Mostly Cloudy,130,2014-02-20 17:55:00
1:15 PM,39.2,26.6,61,29.94,10.0,SSE,3.5,-,N/A,,Overcast,150,2014-02-20 18:15:00
1:35 PM,37.4,28.4,70,29.94,7.0,SE,5.8,-,0.04,,Overcast,140,2014-02-20 18:35:00
1:55 PM,35.6,28.4,75,29.88,3.0,East,10.4,-,0.10,,Overcast,100,2014-02-20 18:55:00
2:15 PM,35.6,30.2,81,29.85,7.0,ESE,12.7,17.3,0.01,,Overcast,120,2014-02-20 19:15:00
2:35 PM,35.6,30.2,81,29.83,5.0,ESE,12.7,17.3,0.02,,Overcast,110,2014-02-20 19:35:00
2:55 PM,35.6,32.0,87,29.83,5.0,ESE,12.7,18.4,0.05,,Overcast,120,2014-02-20 19:55:00
3:15 PM,35.6,30.2,81,29.84,9.0,ESE,9.2,19.6,0.01,,Overcast,110,2014-02-20 20:15:00
3:35 PM,35.6,33.8,93,29.88,1.2,North,4.6,-,0.11,,Overcast,10,2014-02-20 20:35:00
3:55 PM,33.8,33.8,100,29.85,1.2,East,9.2,-,0.14,,Overcast,90,2014-02-20 20:55:00
4:15 PM,35.6,33.8,93,29.84,3.0,ESE,13.8,-,0.03,,Overcast,110,2014-02-20 21:15:00
4:35 PM,35.6,33.8,93,29.84,4.0,ESE,9.2,-,0.05,,Overcast,120,2014-02-20 21:35:00
4:55 PM,35.6,33.8,93,29.83,9.0,ESE,8.1,-,0.05,,Overcast,120,2014-02-20 21:55:00
5:15 PM,35.6,33.8,93,29.83,10.0,SE,10.4,-,N/A,,Overcast,130,2014-02-20 22:15:00
5:35 PM,35.6,33.8,93,29.81,10.0,SE,8.1,-,N/A,,Overcast,140,2014-02-20 22:35:00
5:55 PM,35.6,33.8,93,29.80,10.0,SSE,6.9,-,N/A,,Overcast,160,2014-02-20 22:55:00
6:15 PM,35.6,33.8,93,29.79,10.0,SSE,9.2,-,N/A,,Overcast,160,2014-02-20 23:15:00
6:35 PM,35.6,33.8,93,29.78,10.0,SSE,9.2,-,N/A,,Overcast,160,2014-02-20 23:35:00
6:55 PM,37.4,33.8,87,29.77,10.0,SSE,11.5,-,N/A,,Overcast,160,2014-02-20 23:55:00
7:15 PM,37.4,35.6,93,29.76,10.0,South,9.2,17.3,N/A,,Overcast,170,2014-02-21 00:15:00
7:35 PM,37.4,33.8,87,29.75,10.0,SSE,11.5,-,N/A,,Overcast,160,2014-02-21 00:35:00
7:55 PM,39.2,35.6,87,29.73,10.0,South,11.5,17.3,N/A,,Overcast,170,2014-02-21 00:55:00
8:15 PM,39.2,35.6,87,29.72,8.0,South,11.5,17.3,0.05,,Overcast,180,2014-02-21 01:15:00
8:35 PM,39.2,35.6,87,29.73,10.0,South,10.4,-,0.06,,Overcast,180,2014-02-21 01:35:00
8:55 PM,39.2,35.6,87,29.71,10.0,South,10.4,-,0.07,,Overcast,170,2014-02-21 01:55:00
9:15 PM,39.2,35.6,87,29.71,10.0,South,11.5,-,N/A,,Overcast,170,2014-02-21 02:15:00
9:35 PM,39.2,35.6,87,29.70,10.0,South,12.7,-,N/A,,Overcast,170,2014-02-21 02:35:00
9:55 PM,41.0,35.6,81,29.70,10.0,South,11.5,-,N/A,,Overcast,170,2014-02-21 02:55:00
10:15 PM,41.0,35.6,81,29.69,10.0,SSE,11.5,-,N/A,,Overcast,160,2014-02-21 03:15:00
10:35 PM,41.0,35.6,81,29.68,10.0,South,10.4,-,N/A,,Overcast,170,2014-02-21 03:35:00
10:55 PM,41.0,37.4,87,29.68,10.0,South,9.2,-,N/A,,Overcast,170,2014-02-21 03:55:00
11:15 PM,42.8,37.4,81,29.67,10.0,South,9.2,16.1,N/A,,Overcast,170,2014-02-21 04:15:00
11:35 PM,42.8,37.4,81,29.68,10.0,South,10.4,-,N/A,,Overcast,170,2014-02-21 04:35:00
11:55 PM,42.8,37.4,81,29.66,10.0,South,10.4,-,N/A,,Mostly Cloudy,170,2014-02-21 04:55:00